When you browse on this site, cookies collect data to enhance your experience and personalize the content and advertising you see.
Visit our Privacy Policy to learn more. By continuing to use the site, you agree to this use of cookies and data.
  • In Hungary
  • List of Countries
  • For 7 days
  • Water Temperature
  • Satellite Maps
  • Weather Map
  • News
  • Weather Widgets
  • user-avatar
    Login

    Hourly Weather Sakkhar

    Today, 17 January, Thursday

    Time Temperature Precipitation Wind Pressure Humidity
    00:00 +19°C° 0 mm 2 mps 756 mmHg 24%
    01:00 +19°C° 0 mm 3 mps 756 mmHg 24%
    02:00 +19°C° 0 mm 3 mps 756 mmHg 24%
    03:00 +18°C° 0 mm 3 mps 757 mmHg 24%
    04:00 +18°C° 0 mm 4 mps 757 mmHg 23%
    05:00 +17°C° 0 mm 4 mps 757 mmHg 22%
    06:00 +17°C° 0 mm 4 mps 757 mmHg 22%
    07:00 +17°C° 0 mm 4 mps 758 mmHg 22%
    08:00 +15°C° 0 mm 4 mps 758 mmHg 22%
    09:00 +19°C° 0 mm 4 mps 759 mmHg 20%
    10:00 +21°C° 0 mm 5 mps 759 mmHg 17%
    11:00 +25°C° 0 mm 5 mps 759 mmHg 14%
    12:00 +26°C° 0 mm 5 mps 758 mmHg 13%
    13:00 +27°C° 0 mm 4 mps 758 mmHg 12%
    14:00 +28°C° 0 mm 4 mps 757 mmHg 11%
    15:00 +28°C° 0 mm 3 mps 757 mmHg 11%
    16:00 +28°C° 0 mm 3 mps 757 mmHg 12%
    17:00 +27°C° 0 mm 2 mps 756 mmHg 12%
    18:00 +26°C° 0 mm 2 mps 757 mmHg 13%
    19:00 +24°C° 0 mm 2 mps 757 mmHg 14%
    20:00 +21°C° 0 mm 2 mps 758 mmHg 15%
    21:00 +21°C° 0 mm 2 mps 758 mmHg 16%
    22:00 +20°C° 0 mm 2 mps 758 mmHg 17%
    23:00 +20°C° 0 mm 2 mps 758 mmHg 17%

    Tomorrow, 18 January, Friday

    Time Temperature Precipitation Wind Pressure Humidity
    00:00 +19°C° 0 mm 2 mps 758 mmHg 18%
    01:00 +18°C° 0 mm 2 mps 758 mmHg 18%
    02:00 +18°C° 0 mm 2 mps 758 mmHg 19%
    03:00 +17°C° 0 mm 2 mps 758 mmHg 19%
    04:00 +17°C° 0 mm 2 mps 757 mmHg 20%
    05:00 +17°C° 0 mm 2 mps 757 mmHg 20%
    06:00 +17°C° 0 mm 2 mps 758 mmHg 20%
    07:00 +17°C° 0 mm 2 mps 758 mmHg 20%
    08:00 +17°C° 0 mm 2 mps 759 mmHg 21%
    09:00 +19°C° 0 mm 3 mps 759 mmHg 18%
    10:00 +21°C° 0 mm 3 mps 759 mmHg 16%
    11:00 +25°C° 0 mm 3 mps 760 mmHg 14%
    12:00 +26°C° 0 mm 3 mps 759 mmHg 13%
    13:00 +27°C° 0 mm 2 mps 758 mmHg 12%
    14:00 +28°C° 0 mm 2 mps 757 mmHg 11%
    15:00 +28°C° 0 mm 1 mps 756 mmHg 12%
    16:00 +28°C° 0 mm 1 mps 756 mmHg 13%
    17:00 +26°C° 0 mm 0 mps 756 mmHg 15%
    18:00 +26°C° 0 mm 1 mps 756 mmHg 15%
    19:00 +24°C° 0 mm 1 mps 757 mmHg 16%
    20:00 +21°C° 0 mm 2 mps 757 mmHg 17%
    21:00 +21°C° 0 mm 2 mps 757 mmHg 17%
    22:00 +20°C° 0 mm 2 mps 757 mmHg 17%
    23:00 +20°C° 0 mm 2 mps 757 mmHg 18%

    Day after tomorrow, 19 January, Saturday

    Time Temperature Precipitation Wind Pressure Humidity
    00:00 +20°C° 0 mm 3 mps 757 mmHg 18%
    01:00 +19°C° 0 mm 3 mps 757 mmHg 18%
    02:00 +19°C° 0 mm 3 mps 757 mmHg 18%
    03:00 +18°C° 0 mm 3 mps 757 mmHg 19%
    04:00 +18°C° 0 mm 4 mps 757 mmHg 19%
    05:00 +18°C° 0 mm 4 mps 756 mmHg 19%
    06:00 +17°C° 0 mm 4 mps 757 mmHg 20%
    07:00 +17°C° 0 mm 4 mps 758 mmHg 21%
    08:00 +17°C° 0 mm 4 mps 758 mmHg 21%
    09:00 +19°C° 0 mm 5 mps 758 mmHg 19%
    10:00 +21°C° 0 mm 5 mps 759 mmHg 18%
    11:00 +23°C° 0 mm 5 mps 759 mmHg 16%
    12:00 +25°C° 0 mm 5 mps 758 mmHg 15%
    13:00 +26°C° 0 mm 5 mps 757 mmHg 14%
    14:00 +28°C° 0 mm 4 mps 756 mmHg 13%
    15:00 +27°C° 0 mm 4 mps 756 mmHg 14%
    16:00 +27°C° 0 mm 3 mps 756 mmHg 14%
    17:00 +27°C° 0 mm 3 mps 755 mmHg 15%
    18:00 +25°C° 0 mm 3 mps 756 mmHg 16%
    19:00 +24°C° 0 mm 3 mps 756 mmHg 18%
    20:00 +21°C° 0 mm 3 mps 757 mmHg 19%
    21:00 +21°C° 0 mm 3 mps 757 mmHg 20%
    22:00 +20°C° 0 mm 3 mps 757 mmHg 21%
    23:00 +19°C° 0 mm 3 mps 756 mmHg 22%

    20 January, Sunday

    Time Temperature Precipitation Wind Pressure Humidity
    00:00 +19°C° 0 mm 3 mps 756 mmHg 23%
    01:00 +18°C° 0 mm 3 mps 756 mmHg 23%
    02:00 +17°C° 0 mm 3 mps 756 mmHg 24%
    03:00 +17°C° 0 mm 3 mps 756 mmHg 24%
    04:00 +17°C° 0 mm 3 mps 756 mmHg 25%
    05:00 +16°C° 0 mm 3 mps 756 mmHg 25%
    06:00 +16°C° 0 mm 3 mps 756 mmHg 25%
    07:00 +16°C° 0 mm 3 mps 757 mmHg 25%
    08:00 +16°C° 0 mm 3 mps 757 mmHg 25%
    09:00 +18°C° 0 mm 3 mps 757 mmHg 23%
    10:00 +21°C° 0 mm 3 mps 757 mmHg 21%
    11:00 +24°C° 0 mm 3 mps 757 mmHg 19%
    12:00 +24°C° 0.2 mm 2 mps 756 mmHg 19%
    13:00 +25°C° 0.2 mm 2 mps 755 mmHg 20%
    14:00 +25°C° 0.2 mm 1 mps 754 mmHg 20%
    15:00 +25°C° 0.3 mm 1 mps 754 mmHg 23%
    16:00 +25°C° 0.3 mm 1 mps 753 mmHg 25%
    17:00 +24°C° 0.3 mm 1 mps 753 mmHg 27%
    18:00 +23°C° 0.4 mm 1 mps 753 mmHg 32%
    19:00 +22°C° 0.4 mm 1 mps 754 mmHg 38%
    20:00 +21°C° 0.4 mm 1 mps 754 mmHg 43%
    21:00 +21°C° 0.1 mm 1 mps 754 mmHg 43%
    22:00 +21°C° 0.1 mm 1 mps 754 mmHg 42%
    23:00 +21°C° 0.1 mm 1 mps 754 mmHg 42%

    21 January, Monday

    Time Temperature Precipitation Wind Pressure Humidity
    00:00 +19°C° 0.3 mm 2 mps 754 mmHg 45%
    01:00 +18°C° 0.3 mm 2 mps 754 mmHg 49%
    02:00 +18°C° 0.3 mm 3 mps 754 mmHg 53%
    03:00 +17°C° 0.2 mm 3 mps 753 mmHg 55%
    04:00 +17°C° 0.2 mm 3 mps 753 mmHg 56%
    05:00 +16°C° 0.2 mm 3 mps 753 mmHg 58%
    06:00 +16°C° 0 mm 3 mps 754 mmHg 58%
    07:00 +16°C° 0 mm 3 mps 754 mmHg 57%
    08:00 +14°C° 0 mm 3 mps 755 mmHg 57%
    09:00 +17°C° 0 mm 3 mps 755 mmHg 52%
    10:00 +19°C° 0 mm 3 mps 755 mmHg 46%
    11:00 +21°C° 0 mm 3 mps 756 mmHg 41%
    12:00 +22°C° 0 mm 3 mps 755 mmHg 38%
    13:00 +24°C° 0 mm 2 mps 754 mmHg 35%
    14:00 +25°C° 0 mm 2 mps 753 mmHg 31%
    15:00 +25°C° 0 mm 2 mps 752 mmHg 31%
    16:00 +25°C° 0 mm 2 mps 752 mmHg 30%
    17:00 +25°C° 0 mm 2 mps 752 mmHg 29%
    18:00 +23°C° 0 mm 2 mps 752 mmHg 32%
    19:00 +21°C° 0 mm 2 mps 753 mmHg 34%
    20:00 +20°C° 0 mm 2 mps 753 mmHg 36%
    21:00 +19°C° 0 mm 2 mps 754 mmHg 37%
    22:00 +19°C° 0 mm 2 mps 754 mmHg 37%
    23:00 +18°C° 0 mm 3 mps 754 mmHg 37%

    22 January, Tuesday

    Time Temperature Precipitation Wind Pressure Humidity
    00:00 +17°C° 0 mm 3 mps 754 mmHg 39%
    01:00 +17°C° 0 mm 3 mps 754 mmHg 40%
    02:00 +16°C° 0 mm 3 mps 753 mmHg 41%
    03:00 +16°C° 0 mm 3 mps 753 mmHg 44%
    04:00 +14°C° 0 mm 3 mps 754 mmHg 47%
    05:00 +14°C° 0 mm 3 mps 754 mmHg 50%
    06:00 +14°C° 0 mm 3 mps 754 mmHg 54%
    07:00 +13°C° 0 mm 3 mps 755 mmHg 58%
    08:00 +13°C° 0 mm 3 mps 756 mmHg 62%
    09:00 +16°C° 0 mm 3 mps 756 mmHg 57%
    10:00 +18°C° 0 mm 4 mps 756 mmHg 52%
    11:00 +20°C° 0 mm 4 mps 756 mmHg 47%
    12:00 +21°C° 0 mm 3 mps 756 mmHg 42%
    13:00 +22°C° 0 mm 3 mps 755 mmHg 38%
    14:00 +23°C° 0 mm 2 mps 754 mmHg 33%
    15:00 +24°C° 0 mm 2 mps 754 mmHg 32%
    16:00 +24°C° 0 mm 2 mps 754 mmHg 31%
    17:00 +24°C° 0 mm 1 mps 754 mmHg 29%
    18:00 +23°C° 0 mm 1 mps 754 mmHg 31%
    19:00 +20°C° 0 mm 2 mps 755 mmHg 33%
    20:00 +19°C° 0 mm 2 mps 755 mmHg 35%
    21:00 +19°C° 0 mm 2 mps 755 mmHg 36%
    22:00 +19°C° 0 mm 2 mps 756 mmHg 36%
    23:00 +18°C° 0 mm 3 mps 756 mmHg 37%
    Show more